Weather History for KFSO - June, 2014

Change the Weather History Date:

Saturday, June 7, 2014

  Actual Average (KPBG) Record (KPBG)
Temperature  
Mean Temperature 69 °F 62 °F  
Max Temperature 83 °F 73 °F 93 °F (2008)
Min Temperature 55 °F 51 °F 37 °F (2015)
Degree Days  
Heating Degree Days 0 4  
Month to date heating degree days 34  
Since 1 June heating degree days 34  
Since 1 July heating degree days 7661  
Cooling Degree Days 4 1  
Month to date cooling degree days 7  
Year to date cooling degree days 15  
Since 1 June cooling degree days 7  
Growing Degree Days 19 (Base 50)    
Moisture  
Dew Point 55 °F    
Average Humidity 61    
Maximum Humidity 88    
Minimum Humidity 32    
Precipitation  
Precipitation 0.00 in - 1.12 in (2013)
Month to date precipitation  
Year to date precipitation  
Sea Level Pressure  
Sea Level Pressure 29.94 in    
Wind  
Wind Speed 1 mph (West)    
Max Wind Speed 8 mph    
Max Gust Speed -    
Visibility 10 miles    
Events      
T = Trace of Precipitation, MM = Missing Value Source: NWS Daily Summary

Daily Weather History Graph

Daily Weather History Graph

Search for Another Location

Airport or City:

Trip Planner

Search our weather history database for the weather conditions in past years. The results will help you decide how hot, cold, wet, or windy it might be!

Date:

Astronomy

Jun. 07, 2014 Rise Set
Actual Time 5:06 AM EDT 8:36 PM EDT
Civil Twilight 4:29 AM EDT 9:13 PM EDT
Nautical Twilight 3:41 AM EDT 10:01 PM EDT
Astronomical Twilight 2:38 AM EDT 11:04 PM EDT
Moon 2:37 PM EDT (6/7) 1:42 AM EDT (6/7)
Length of Visible Light 16h 43m
Length of Day
15h 29m
Waxing Gibbous, 67% of the Moon is Illuminated
Jun 7
Waxing Gibbous
Jun 13
Full
Jun 19
Last Quarter
Jun 27
New
Jul 5
First Quarter

Hourly Weather History & Observations

Time (EDT) Temp. Heat Index Dew Point Humidity Pressure Visibility Wind Dir Wind Speed Gust Speed Precip Events Conditions
12:15 AM 61.0 °F - 56.1 °F 84% 29.91 in 10.0 mi Calm Calm - N/A   Scattered Clouds
12:35 AM 61.7 °F - 55.9 °F 81% 29.91 in 10.0 mi Calm Calm - N/A   Scattered Clouds
12:55 AM 62.2 °F - 55.6 °F 79% 29.91 in 10.0 mi Calm Calm - N/A   Clear
1:15 AM 62.1 °F - 55.4 °F 79% 29.91 in 10.0 mi Calm Calm - N/A   Clear
1:35 AM 61.0 °F - 54.7 °F 80% 29.92 in 10.0 mi Calm Calm - N/A   Clear
1:55 AM 61.0 °F - 55.6 °F 82% 29.92 in 10.0 mi Calm Calm - N/A   Clear
2:15 AM 60.3 °F - 55.6 °F 85% 29.92 in 10.0 mi Calm Calm - N/A   Scattered Clouds
2:35 AM 61.0 °F - 54.3 °F 79% 29.92 in 10.0 mi Calm Calm - N/A   Clear
2:55 AM 60.6 °F - 55.0 °F 82% 29.93 in 10.0 mi Calm Calm - N/A   Clear
3:15 AM 59.2 °F - 54.7 °F 85% 29.93 in 10.0 mi SW 3.5 mph - N/A   Clear
3:35 AM 61.0 °F - 55.8 °F 83% 29.93 in 10.0 mi Calm Calm - N/A   Scattered Clouds
3:55 AM 61.0 °F - 55.2 °F 81% 29.93 in 10.0 mi Calm Calm - N/A   Clear
4:15 AM 61.0 °F - 55.0 °F 81% 29.93 in 10.0 mi Calm Calm - N/A   Scattered Clouds
4:35 AM 61.0 °F - 55.4 °F 82% 29.94 in 10.0 mi Calm Calm - N/A   Mostly Cloudy
4:55 AM 59.9 °F - 53.6 °F 80% 29.94 in 10.0 mi Calm Calm - N/A   Mostly Cloudy
5:15 AM 55.9 °F - 51.8 °F 86% 29.94 in 10.0 mi Calm Calm - N/A   Overcast
5:35 AM 55.9 °F - 52.3 °F 88% 29.95 in 10.0 mi Calm Calm - N/A   Scattered Clouds
5:55 AM 58.1 °F - 54.3 °F 87% 29.95 in 10.0 mi Calm Calm - N/A   Scattered Clouds
6:15 AM 58.6 °F - 54.9 °F 87% 29.95 in 10.0 mi Calm Calm - N/A   Scattered Clouds
6:35 AM 61.0 °F - 56.3 °F 85% 29.95 in 10.0 mi Calm Calm - N/A   Clear
6:55 AM 63.5 °F - 56.3 °F 77% 29.95 in 10.0 mi Calm Calm - N/A   Clear
7:15 AM 65.7 °F - 55.4 °F 69% 29.95 in 10.0 mi Calm Calm - N/A   Clear
7:55 AM 68.5 °F - 55.6 °F 63% 29.96 in 10.0 mi Calm Calm - N/A   Clear
8:15 AM 68.5 °F - 55.2 °F 62% 29.97 in 10.0 mi Calm Calm - N/A   Clear
8:35 AM 71.1 °F - 56.5 °F 60% 29.98 in 10.0 mi Calm Calm - N/A   Clear
8:55 AM 71.1 °F - 55.9 °F 59% 29.97 in 10.0 mi Calm Calm - N/A   Clear
9:35 AM 71.4 °F - 55.8 °F 58% 29.97 in 10.0 mi SW 4.6 mph - N/A   Clear
9:55 AM 73.4 °F - 55.6 °F 54% 29.97 in 10.0 mi West 3.5 mph - N/A   Clear
10:15 AM 73.9 °F - 55.4 °F 52% 29.97 in 10.0 mi Calm Calm - N/A   Clear
10:35 AM 76.1 °F - 57.2 °F 52% 29.97 in 10.0 mi West 4.6 mph - N/A   Clear
10:55 AM 76.1 °F - 56.3 °F 50% 29.97 in 10.0 mi West 3.5 mph - N/A   Clear
11:15 AM 76.1 °F - 55.9 °F 50% 29.97 in 10.0 mi SW 4.6 mph - N/A   Clear
11:35 AM 77.0 °F - 55.4 °F 47% 29.97 in 7.0 mi SSW 5.8 mph - N/A   Clear
11:55 AM 78.6 °F - 56.1 °F 46% 29.97 in 10.0 mi Calm Calm - N/A   Clear
12:15 PM 78.8 °F - 55.6 °F 45% 29.97 in 10.0 mi Calm Calm - N/A   Clear
12:35 PM 79.7 °F - 55.0 °F 43% 29.96 in 10.0 mi WSW 5.8 mph - N/A   Clear
1:15 PM 81.1 °F 80.9 °F 55.2 °F 41% 29.96 in 10.0 mi WSW 4.6 mph - N/A   Clear
1:35 PM 81.1 °F 80.7 °F 54.1 °F 39% 29.97 in 10.0 mi West 5.8 mph - N/A   Clear
1:55 PM 81.1 °F - 52.9 °F 37% 29.95 in 10.0 mi Calm Calm - N/A   Clear
2:15 PM 82.4 °F - 52.2 °F 35% 29.95 in 10.0 mi West 4.6 mph - N/A   Scattered Clouds
2:35 PM 81.7 °F - 51.1 °F 34% 29.95 in 10.0 mi WNW 5.8 mph - N/A   Scattered Clouds
2:55 PM 81.0 °F - 50.7 °F 35% 29.95 in 10.0 mi WNW 5.8 mph - N/A   Clear
3:15 PM 81.5 °F - 50.4 °F 34% 29.94 in 10.0 mi WNW 6.9 mph - N/A   Clear
3:35 PM 83.7 °F - 50.7 °F 32% 29.94 in 7.0 mi NNW 8.1 mph - N/A   Clear
3:55 PM 83.7 °F - 50.9 °F 32% 29.94 in 10.0 mi NNW 6.9 mph - N/A   Clear
4:15 PM 82.9 °F - 51.4 °F 33% 29.93 in 10.0 mi NW 6.9 mph - N/A   Clear
4:35 PM 83.3 °F - 51.3 °F 33% 29.92 in 10.0 mi NNW 4.6 mph - N/A   Clear
4:55 PM 83.8 °F - 51.6 °F 33% 29.92 in 10.0 mi NNW 5.8 mph - N/A   Clear
5:15 PM 83.5 °F - 51.8 °F 33% 29.91 in 10.0 mi Calm Calm - N/A   Clear
5:35 PM 82.8 °F - 52.5 °F 35% 29.90 in 10.0 mi North 3.5 mph - N/A   Clear
5:55 PM 83.5 °F - 51.3 °F 33% 29.90 in 10.0 mi NNW 4.6 mph - N/A   Clear
6:15 PM 82.4 °F - 50.5 °F 33% 29.90 in 10.0 mi Calm Calm - N/A   Clear
6:55 PM 81.1 °F - 51.3 °F 35% 29.89 in 10.0 mi Calm Calm - N/A   Clear
7:15 PM 81.1 °F 80.6 °F 53.2 °F 38% 29.90 in 10.0 mi Calm Calm - N/A   Clear
7:35 PM 78.8 °F - 55.0 °F 44% 29.90 in 7.0 mi Calm Calm - N/A   Clear
7:55 PM 76.1 °F - 57.0 °F 51% 29.89 in 10.0 mi Calm Calm - N/A   Clear
8:15 PM 73.8 °F - 56.8 °F 55% 29.90 in 10.0 mi Calm Calm - N/A   Clear
8:35 PM 71.1 °F - 55.4 °F 58% 29.90 in 10.0 mi Calm Calm - N/A   Clear
8:55 PM 71.1 °F - 55.4 °F 58% 29.90 in 10.0 mi Calm Calm - N/A   Clear
9:15 PM 68.5 °F - 58.6 °F 71% 29.91 in 10.0 mi Calm Calm - N/A   Clear
9:35 PM 68.4 °F - 58.5 °F 71% 29.92 in 10.0 mi Calm Calm - N/A   Clear
9:55 PM 66.2 °F - 58.3 °F 76% 29.92 in 10.0 mi Calm Calm - N/A   Clear
10:15 PM 63.5 °F - 57.2 °F 80% 29.93 in 10.0 mi Calm Calm - N/A   Clear
10:35 PM 63.5 °F - 58.1 °F 83% 29.93 in 10.0 mi Calm Calm - N/A   Clear
10:55 PM 62.6 °F - 57.2 °F 82% 29.94 in 10.0 mi Calm Calm - N/A   Clear
11:15 PM 62.6 °F - 57.0 °F 82% 29.94 in 10.0 mi SE 3.5 mph - N/A   Clear
11:35 PM 62.2 °F - 56.7 °F 82% 29.93 in 10.0 mi SE 3.5 mph - N/A   Clear
11:55 PM 62.1 °F - 56.5 °F 82% 29.93 in 10.0 mi Calm Calm - N/A   Clear